Location: Caltech
(34.1382°N, 118.1253°W)
Time: 04:55:06
(UTC-07:00)

Cosmos 1937 Rocket - Visible Passes

Search period start: 30 August 2015 00:00
Search period end: 09 September 2015 00:00
Orbit: 748 x 781 km, 74.0° (Epoch: 29 August)

Date Brightness Start Highest point End Pass type
(mag) Time Alt. Az. Time Alt. Az. Time Alt. Az.
03 Sep 6.1 05:51:02 10° SSE 05:54:58 23° E 05:59:02 10° NE visible
04 Sep 6.6 05:15:13 10° ESE 05:16:58 12° E 05:19:03 10° ENE visible
06 Sep 5.0 05:37:31 10° SSE 05:42:12 38° ESE 05:46:57 10° NE visible
07 Sep 6.0 05:00:33 10° SE 05:04:09 20° E 05:07:57 10° NE visible
08 Sep 6.6 04:25:54 10° E 04:26:10 10° E 04:26:50 10° E visible
08 Sep 3.5 06:02:31 10° SSW 06:07:37 69° WNW 06:12:46 10° NNE visible
